Date String (YYYY-MM-DD hh:mm:ss) UTC,Instrument flags,Ambient pressure (hPa),Sample flow (lpm),Bypass flow (lpm),Sample temperature (°C),Ambient temperature (°C),ASC tube jacket temperature (°C),LED temperature (°C),Box temperature (°C),Sample RH (%),Span deviation,Mass concentration (μg/m³),Mass concentration (μg/m³),Mass concentration (μg/m³)
DateTimeUTC,F1_M11,P_M11,Q1_M11,Q2_M11,T1_M11,T2_M11,T3_M11,T4_M11,T5_M11,U1_M11,ZSPAN_M11,X0_M11,X2_M11,X1_M11
2023-01-21 02:00:00,,0826.5,4.99,0.00,22.5,20.8,00.0,31.2,24.2,08.8,0000.0,0015.67,0009.32,0008.69
2023-01-21 02:01:00,,0826.5,4.99,0.00,22.4,20.7,00.0,31.2,24.2,08.8,0000.0,0015.87,0009.27,0008.64
2023-01-21 02:02:00,,0826.5,5.00,0.00,22.4,20.7,00.0,31.2,24.1,08.8,0000.0,0015.63,0009.24,0008.60
2023-01-21 02:03:00,,0826.5,5.02,0.00,22.4,20.6,00.0,31.2,24.1,08.9,0000.0,0014.98,0009.22,0008.58
2023-01-21 02:04:00,,0826.5,5.00,0.00,22.4,20.6,00.0,31.2,24.1,08.9,0000.0,0014.31,0009.17,0008.57
2023-01-21 02:05:00,,0826.5,4.99,0.00,22.4,20.5,00.0,31.2,24.1,08.9,0000.0,0014.01,0009.18,0008.58
2023-01-21 02:06:00,,0826.5,5.01,0.00,22.3,20.5,00.0,31.2,24.0,08.8,0000.0,0013.53,0009.18,0008.57
2023-01-21 02:07:00,,0826.5,5.02,0.00,22.3,20.4,00.0,31.1,24.0,08.9,0000.0,0013.54,0009.17,0008.57
2023-01-21 02:08:00,,0826.5,5.01,0.00,22.3,20.4,00.0,31.1,23.9,09.0,0000.0,0013.50,0009.18,0008.58
2023-01-21 02:09:00,,0826.5,4.98,0.00,22.2,20.3,00.0,31.1,23.9,09.0,0000.0,0013.79,0009.27,0008.64
2023-01-21 02:10:00,,0826.5,4.99,0.00,22.2,20.3,00.0,31.1,23.8,09.1,0000.0,0013.95,0009.39,0008.77
2023-01-21 02:11:00,,0826.5,5.01,0.00,22.2,20.2,00.0,31.1,23.8,09.1,0000.0,0014.51,0009.50,0008.90
2023-01-21 02:12:00,,0826.5,5.01,0.00,22.1,20.1,00.0,31.1,23.7,09.2,0000.0,0014.95,0009.63,0009.04
2023-01-21 02:13:00,,0826.5,5.00,0.00,22.1,20.1,00.0,31.0,23.7,09.3,0000.0,0015.17,0009.76,0009.17
2023-01-21 02:14:00,,0826.5,5.00,0.00,22.1,20.0,00.0,31.0,23.7,09.3,0000.0,0015.55,0009.88,0009.29
2023-01-21 02:15:00,,0826.5,4.99,0.00,22.0,20.0,00.0,31.0,23.7,09.4,0000.0,0016.08,0010.05,0009.42
2023-01-21 02:16:00,,0826.5,5.00,0.00,22.0,20.0,00.0,30.9,23.6,09.5,0000.0,0016.35,0010.16,0009.52
2023-01-21 02:17:00,,0826.4,5.01,0.00,22.0,20.2,00.0,30.9,23.7,09.5,0000.0,0016.59,0010.26,0009.63
2023-01-21 02:18:00,,0826.5,5.00,0.00,22.1,21.1,00.0,30.9,23.9,09.6,0000.0,0016.68,0010.41,0009.72
2023-01-21 02:19:00,,0826.5,5.02,0.00,22.2,22.1,00.0,30.9,24.1,09.6,0000.0,0017.06,0010.56,0009.81
2023-01-21 02:20:00,,0826.4,5.00,0.00,22.3,22.3,00.0,30.9,24.2,09.6,0000.0,0017.03,0010.63,0009.87
2023-01-21 02:21:00,,0826.5,4.99,0.00,22.3,21.9,00.0,31.0,24.2,09.5,0000.0,0017.00,0010.60,0009.84
2023-01-21 02:22:00,,0826.5,5.02,0.00,22.3,21.5,00.0,31.0,24.1,09.5,0000.0,0016.70,0010.63,0009.85
2023-01-21 02:23:00,,0826.5,5.01,0.00,22.3,21.2,00.0,31.0,24.0,09.4,0000.0,0016.20,0010.68,0009.89
2023-01-21 02:24:00,,0826.5,4.99,0.00,22.2,20.9,00.0,31.0,24.0,09.4,0000.0,0016.32,0010.80,0009.98
2023-01-21 02:25:00,,0826.5,4.99,0.00,22.2,20.8,00.0,31.0,23.9,09.4,0000.0,0016.32,0010.94,0010.08
2023-01-21 02:26:00,,0826.5,5.01,0.00,22.2,20.7,00.0,31.0,24.0,09.4,0000.0,0016.19,0011.12,0010.17
2023-01-21 02:27:00,,0826.5,5.02,0.00,22.2,20.7,00.0,31.0,24.0,09.4,0000.0,0016.31,0011.25,0010.27
2023-01-21 02:28:00,,0826.5,5.00,0.00,22.2,20.7,00.0,31.0,23.9,09.4,0000.0,0016.35,0011.36,0010.35
2023-01-21 02:29:00,,0826.4,4.99,0.00,22.2,20.7,00.0,31.0,23.9,09.4,0000.0,0016.44,0011.45,0010.44
2023-01-21 02:30:00,,0826.5,4.99,0.00,22.2,20.6,00.0,31.0,23.9,09.3,0000.0,0017.14,0011.57,0010.55
2023-01-21 02:31:00,,0826.5,4.99,0.00,22.1,20.5,00.0,31.0,23.8,09.4,0000.0,0017.47,0011.73,0010.68
2023-01-21 02:32:00,,0826.5,5.00,0.00,22.1,20.4,00.0,31.0,23.8,09.3,0000.0,0017.72,0011.91,0010.81
2023-01-21 02:33:00,,0826.5,4.99,0.00,22.1,20.3,00.0,30.9,23.7,09.3,0000.0,0017.81,0011.97,0010.90
2023-01-21 02:34:00,,0826.5,5.01,0.00,22.1,20.2,00.0,30.9,23.7,09.2,0000.0,0017.93,0012.02,0010.94
2023-01-21 02:35:00,,0826.5,5.00,0.00,22.0,20.1,00.0,30.9,23.7,09.2,0000.0,0018.17,0012.04,0010.94
2023-01-21 02:36:00,,0826.5,5.00,0.00,22.0,20.1,00.0,30.9,23.6,09.2,0000.0,0018.21,0011.94,0010.87
2023-01-21 02:37:00,,0826.5,5.01,0.00,22.0,20.0,00.0,30.9,23.6,09.3,0000.0,0018.15,0011.76,0010.77
2023-01-21 02:38:00,,0826.5,5.00,0.00,21.9,20.0,00.0,30.8,23.6,09.4,0000.0,0018.05,0011.62,0010.67
2023-01-21 02:39:00,,0826.5,5.00,0.00,21.9,20.0,00.0,30.8,23.6,09.3,0000.0,0017.90,0011.54,0010.61
2023-01-21 02:40:00,,0826.5,5.01,0.00,21.9,20.3,00.0,30.8,23.6,09.2,0000.0,0017.69,0011.41,0010.52
2023-01-21 02:41:00,,0826.5,4.99,0.00,22.0,21.3,00.0,30.8,23.9,09.1,0000.0,0016.75,0011.22,0010.36
2023-01-21 02:42:00,,0826.4,5.00,0.00,22.1,22.3,00.0,30.8,24.1,09.0,0000.0,0016.45,0011.05,0010.19
2023-01-21 02:43:00,,0826.5,4.99,0.00,22.2,22.5,00.0,30.8,24.3,09.0,0000.0,0016.18,0010.85,0009.99
2023-01-21 02:44:00,,0826.5,5.00,0.00,22.2,22.1,00.0,30.9,24.2,09.0,0000.0,0016.34,0010.68,0009.80
2023-01-21 02:45:00,,0826.5,5.01,0.00,22.3,21.7,00.0,30.9,24.2,09.0,0000.0,0016.09,0010.52,0009.66
2023-01-21 02:46:00,,0826.5,4.98,0.00,22.3,21.4,00.0,30.9,24.1,09.0,0000.0,0015.60,0010.34,0009.55
2023-01-21 02:47:00,,0826.5,4.98,0.00,22.3,21.2,00.0,30.9,24.1,09.0,0000.0,0015.29,0010.31,0009.49
2023-01-21 02:48:00,,0826.5,5.01,0.00,22.2,21.0,00.0,30.9,24.0,09.0,0000.0,0015.00,0010.31,0009.48
2023-01-21 02:49:00,,0826.5,4.97,0.00,22.2,20.9,00.0,31.0,24.0,09.0,0000.0,0014.91,0010.33,0009.48
2023-01-21 02:50:00,,0826.5,5.01,0.00,22.2,20.8,00.0,31.0,24.0,09.0,0000.0,0015.11,0010.32,0009.46
2023-01-21 02:51:00,,0826.5,5.00,0.00,22.2,20.7,00.0,31.0,23.9,08.9,0000.0,0014.99,0010.27,0009.41
2023-01-21 02:52:00,,0826.5,5.01,0.00,22.2,20.7,00.0,31.0,23.9,08.9,0000.0,0015.05,0010.31,0009.45
2023-01-21 02:53:00,,0826.5,5.02,0.00,22.2,20.6,00.0,31.0,23.9,09.0,0000.0,0015.27,0010.32,0009.50
2023-01-21 02:54:00,,0826.5,5.02,0.00,22.2,20.6,00.0,30.9,23.9,08.9,0000.0,0015.45,0010.40,0009.58
2023-01-21 02:55:00,,0826.5,5.01,0.00,22.2,20.5,00.0,30.9,23.9,08.9,0000.0,0015.02,0010.40,0009.62
2023-01-21 02:56:00,,0826.5,5.00,0.00,22.1,20.5,00.0,30.9,23.9,08.9,0000.0,0014.98,0010.47,0009.67
2023-01-21 02:57:00,,0826.5,4.99,0.00,22.1,20.4,00.0,30.9,23.8,08.8,0000.0,0014.99,0010.47,0009.66
2023-01-21 02:58:00,,0826.5,5.01,0.00,22.1,20.4,00.0,30.9,23.8,08.8,0000.0,0014.75,0010.37,0009.62
2023-01-21 02:59:00,,0826.5,5.00,0.00,22.1,20.4,00.0,30.9,23.8,08.8,0000.0,0014.64,0010.33,0009.59
